User: anonymous
Location: Santa Barbara
(34.4500°N, 119.7700°W)
Time: 07:05:39
(UTC-07:00)
Language:

Cosmos 1892 Rocket - Orbit

View from above orbital plane
View from above orbital plane
View from above satellite
View from above satellite

Ground track
Ground track

The orbit data is extracted from the following two-line orbital elements,

1 18422U 87088B   14244.48759506  .00000298  00000-0  34126-4 0  3316
2 18422 082.5104 052.1333 0019902 192.7268 219.6776 14.82417447450719
Epoch (UTC): 01 September 2014 11:42:08
Eccentricity: 0.0019902
inclination: 82.5104°
perigee height: 608 km
apogee height: 635 km
right ascension of ascending node: 52.1333°
argument of perigee: 192.7268°
revolutions per day: 14.82417447
mean anomaly at epoch: 219.6776°
orbit number at epoch: 45071

The dashed part of the orbit path shows where the satellite is in the earth's shadow,  

DLR